Location: Home
(42.5358°N, 72.7383°W)
Time: 07:35:55
(UTC-04:00)

Explorer 11/Cluster Stage 4 - Pass Details

Date: 20 April 2025
Orbit: 463 x 1190 km, 28.8° (Epoch: 14 May)

Event Time Altitude Azimuth Distance (km) Brightness Sun altitude
Rises 08:56:36 0° 245° (WSW) 3,059 9.2 31.1°
Reaches altitude 10° 09:00:33 10° 215° (SW) 1,963 8.5 31.8°
Maximum altitude 09:02:20 12° 192° (SSW) 1,748 8.5 32.1°
Drops below altitude 10° 09:04:02 10° 168° (SSE) 1,821 8.9 32.4°
Sets 09:07:22 0° 136° (SE) 2,596 10.1 33.0°
